Retour au catalogue

SL-12 R/B

AUX MOTOR

ActifHEO
NORAD 15053·ROCKET BODY·🇷🇺 Russia

Lancé May 19, 1984 depuis Baikonur Cosmodrome

Loading…

Prochains Passages (prochaines 24 heures)

TLE

FraisSource: Space-Track

Époque: Sep 14, 2026, 20:29 UTC

1 15053U 84047G   26257.85383128  .00000561  00000-0  45007-3 0  9998
2 15053  52.0917  55.8088 5502898  66.6677 340.8857  4.70635164688293

Suivez SL-12 R/B en temps réel avec AllMySat

Download on the App Store